Time,TemperatureF,DewpointF,PressureIn,WindDirection,WindDirectionDegrees,WindSpeedMPH,WindSpeedGustMPH,Humidity,HourlyPrecipIn,Conditions,Clouds,dailyrainin,SoftwareType,DateUTC
2013-04-30 02:02:00,59.0,-99.9,-100.00,North,-999,-999.0,-999.0,-999,0.00,,,0.90,,2013-04-30 06:02:00,
2013-04-30 02:12:00,59.0,-99.9,-100.00,North,-999,-999.0,-999.0,-999,0.00,,,0.90,,2013-04-30 06:12:00,
2013-04-30 02:52:00,59.0,-99.9,-100.00,North,-999,-999.0,-999.0,-999,0.00,,,0.84,,2013-04-30 06:52:00,
2013-04-30 03:02:00,59.0,-99.9,-100.00,North,-999,-999.0,-999.0,-999,0.00,,,0.84,,2013-04-30 07:02:00,
2013-04-30 03:11:00,59.0,-99.9,-100.00,North,-999,-999.0,-999.0,-999,0.00,,,0.84,,2013-04-30 07:11:00,
2013-04-30 03:52:00,57.0,-99.9,-100.00,North,-999,-999.0,-999.0,-999,0.00,,,0.61,,2013-04-30 07:52:00,
2013-04-30 04:02:00,57.0,-99.9,-100.00,North,-999,-999.0,-999.0,-999,0.00,,,0.61,,2013-04-30 08:02:00,
2013-04-30 04:12:00,57.0,-99.9,-100.00,North,-999,-999.0,-999.0,-999,0.00,,,0.61,,2013-04-30 08:12:00,
2013-04-30 04:52:00,58.0,-99.9,-100.00,North,-999,-999.0,-999.0,-999,0.00,,,0.54,,2013-04-30 08:52:00,
2013-04-30 05:02:00,58.0,-99.9,-100.00,North,-999,-999.0,-999.0,-999,0.00,,,0.54,,2013-04-30 09:02:00,
2013-04-30 05:11:00,58.0,-99.9,-100.00,North,-999,-999.0,-999.0,-999,0.00,,,0.54,,2013-04-30 09:11:00,
2013-04-30 10:52:00,59.0,-99.9,-100.00,North,-999,-999.0,-999.0,-999,0.00,,,0.01,,2013-04-30 14:52:00,
2013-04-30 11:02:00,59.0,-99.9,-100.00,North,-999,-999.0,-999.0,-999,0.00,,,0.01,,2013-04-30 15:02:00,
2013-04-30 11:11:00,59.0,-99.9,-100.00,North,-999,-999.0,-999.0,-999,0.00,,,0.01,,2013-04-30 15:11:00,
2013-04-30 11:53:00,60.0,-99.9,-100.00,North,-999,-999.0,-999.0,-999,0.00,,,0.00,,2013-04-30 15:53:00,
2013-04-30 12:02:00,60.0,-99.9,-100.00,North,-999,-999.0,-999.0,-999,0.00,,,0.00,,2013-04-30 16:02:00,
2013-04-30 12:13:00,60.0,-99.9,-100.00,North,-999,-999.0,-999.0,-999,0.00,,,0.00,,2013-04-30 16:13:00,
2013-04-30 12:53:00,63.0,-99.9,-100.00,North,-999,-999.0,-999.0,-999,0.00,,,0.00,,2013-04-30 16:53:00,
2013-04-30 13:03:00,63.0,-99.9,-100.00,North,-999,-999.0,-999.0,-999,0.00,,,0.00,,2013-04-30 17:03:00,
2013-04-30 13:12:00,63.0,-99.9,-100.00,North,-999,-999.0,-999.0,-999,0.00,,,0.00,,2013-04-30 17:12:00,
2013-04-30 14:52:00,65.0,-99.9,-100.00,North,-999,-999.0,-999.0,-999,0.00,,,0.00,,2013-04-30 18:52:00,
2013-04-30 15:02:00,65.0,-99.9,-100.00,North,-999,-999.0,-999.0,-999,0.00,,,0.00,,2013-04-30 19:02:00,
2013-04-30 15:12:00,65.0,-99.9,-100.00,North,-999,-999.0,-999.0,-999,0.00,,,0.00,,2013-04-30 19:12:00,
2013-04-30 15:52:00,65.0,-99.9,-100.00,North,-999,-999.0,-999.0,-999,0.00,,,0.00,,2013-04-30 19:52:00,
2013-04-30 16:11:00,65.0,-99.9,-100.00,North,-999,-999.0,-999.0,-999,0.00,,,0.00,,2013-04-30 20:11:00,
2013-04-30 17:53:00,67.0,-99.9,-100.00,North,-999,-999.0,-999.0,-999,0.00,,,0.00,,2013-04-30 21:53:00,
2013-04-30 18:03:00,67.0,-99.9,-100.00,North,-999,-999.0,-999.0,-999,0.00,,,0.00,,2013-04-30 22:03:00,
2013-04-30 18:12:00,67.0,-99.9,-100.00,North,-999,-999.0,-999.0,-999,0.00,,,0.00,,2013-04-30 22:12:00,
2013-04-30 18:53:00,66.0,-99.9,-100.00,North,-999,-999.0,-999.0,-999,0.00,,,0.00,,2013-04-30 22:53:00,
2013-04-30 19:03:00,66.0,-99.9,-100.00,North,-999,-999.0,-999.0,-999,0.00,,,0.00,,2013-04-30 23:03:00,
2013-04-30 19:12:00,66.0,-99.9,-100.00,North,-999,-999.0,-999.0,-999,0.00,,,0.00,,2013-04-30 23:12:00,
2013-04-30 19:53:00,67.0,-99.9,-100.00,North,-999,-999.0,-999.0,-999,0.00,,,0.00,,2013-04-30 23:53:00,
2013-04-30 20:02:00,67.0,-99.9,-100.00,North,-999,-999.0,-999.0,-999,0.00,,,0.00,,2013-05-01 00:02:00,
2013-04-30 20:11:00,67.0,-99.9,-100.00,North,-999,-999.0,-999.0,-999,0.00,,,0.00,,2013-05-01 00:11:00,
2013-04-30 20:52:00,64.0,-99.9,-100.00,North,-999,-999.0,-999.0,-999,0.00,,,-99.99,,2013-05-01 00:52:00,
2013-04-30 21:02:00,64.0,-99.9,-100.00,North,-999,-999.0,-999.0,-999,0.00,,,-99.99,,2013-05-01 01:02:00,
2013-04-30 21:12:00,64.0,-99.9,-100.00,North,-999,-999.0,-999.0,-999,0.00,,,-99.99,,2013-05-01 01:12:00,
2013-04-30 21:53:00,63.0,-99.9,-100.00,North,-999,-999.0,-999.0,-999,0.00,,,-99.99,,2013-05-01 01:53:00,
2013-04-30 22:02:00,63.0,-99.9,-100.00,North,-999,-999.0,-999.0,-999,0.00,,,-99.99,,2013-05-01 02:02:00,
2013-04-30 22:12:00,63.0,-99.9,-100.00,North,-999,-999.0,-999.0,-999,0.00,,,-99.99,,2013-05-01 02:12:00,
2013-04-30 22:52:00,62.0,-99.9,-100.00,North,-999,-999.0,-999.0,-999,0.00,,,-99.99,,2013-05-01 02:52:00,
2013-04-30 23:02:00,62.0,-99.9,-100.00,North,-999,-999.0,-999.0,-999,0.00,,,-99.99,,2013-05-01 03:02:00,
2013-04-30 23:11:00,62.0,-99.9,-100.00,North,-999,-999.0,-999.0,-999,0.00,,,-99.99,,2013-05-01 03:11:00,
2013-04-30 23:53:00,59.0,-99.9,-100.00,North,-999,-999.0,-999.0,-999,0.00,,,-99.99,,2013-05-01 03:53:00,